Location: Norton
(51.3000°N, 0.8167°E)
Time: 13:08:14
(UTC+00:00)

Cosmos 2322 Rocket - Pass Details

Date: 03 March 2021
Orbit: 832 x 852 km, 71.0° (Epoch: 10 April)

Event Time Altitude Azimuth Distance (km) Brightness Sun altitude
Rises 20:52:57 0° 257° (WSW) 3,376 6.0 -29.8°
Reaches altitude 10° 20:55:55 10° 272° (W) 2,446 5.3 -30.2°
Maximum altitude 21:00:17 23° 323° (NW) 1,730 4.4 -30.7°
Drops below altitude 10° 21:04:40 10° 14° (NNE) 2,462 4.8 -31.3°
Sets 21:07:41 0° 30° (NNE) 3,403 5.4 -31.7°
